Time,TemperatureF,DewpointF,PressureIn,WindDirection,WindDirectionDegrees,WindSpeedMPH,WindSpeedGustMPH,Humidity,HourlyPrecipIn,Conditions,Clouds,dailyrainin,SoftwareType,DateUTC
2014-01-19 14:41:00,35.1,6.8,29.79,North,0,0.0,0.0,30,0.00,,---,0.00,VWS V14.01,2014-01-19 19:41:00,
2014-01-19 14:46:00,35.2,6.9,29.79,North,0,0.0,0.0,30,0.00,,---,0.00,VWS V14.01,2014-01-19 19:46:00,
2014-01-19 14:51:00,35.8,6.7,29.76,North,0,0.0,0.0,29,0.00,,---,0.00,VWS V14.01,2014-01-19 19:51:00,
2014-01-19 14:56:00,35.8,6.7,29.76,North,0,0.0,0.0,29,0.00,,---,0.00,VWS V14.01,2014-01-19 19:56:00,
2014-01-19 15:01:00,35.8,6.7,29.76,North,0,0.0,0.0,29,0.00,,---,0.00,VWS V14.01,2014-01-19 20:01:00,
2014-01-19 15:06:00,35.8,6.7,29.76,North,0,0.0,0.0,29,0.00,,---,0.00,VWS V14.01,2014-01-19 20:06:00,
2014-01-19 15:11:00,35.8,6.7,29.76,North,0,0.0,0.0,29,0.00,,---,0.00,VWS V14.01,2014-01-19 20:11:00,
2014-01-19 15:16:00,35.8,6.7,29.76,North,0,0.0,0.0,29,0.00,,---,0.00,VWS V14.01,2014-01-19 20:16:00,
2014-01-19 15:21:00,37.0,7.8,29.76,North,0,0.0,0.0,29,0.00,,---,0.00,VWS V14.01,2014-01-19 20:21:00,
2014-01-19 15:26:00,37.0,7.8,29.76,North,0,0.0,0.0,29,0.00,,---,0.00,VWS V14.01,2014-01-19 20:26:00,
2014-01-19 15:31:00,37.2,7.9,29.76,North,0,0.0,0.0,29,0.00,,---,0.00,VWS V14.01,2014-01-19 20:31:00,
2014-01-19 15:36:00,37.4,8.1,29.76,North,0,0.0,0.0,29,0.00,,---,0.00,VWS V14.01,2014-01-19 20:36:00,
2014-01-19 15:41:00,37.8,8.4,29.76,North,0,0.0,0.0,29,0.00,,---,0.00,VWS V14.01,2014-01-19 20:41:00,
2014-01-19 15:46:00,37.9,8.5,29.76,North,0,0.0,0.0,29,0.00,,---,0.00,VWS V14.01,2014-01-19 20:46:00,
2014-01-19 15:51:00,37.8,8.4,29.74,North,0,0.0,0.0,29,0.00,,---,0.00,VWS V14.01,2014-01-19 20:51:00,
2014-01-19 15:56:00,37.9,8.5,29.74,North,0,0.0,0.0,29,0.00,,---,0.00,VWS V14.01,2014-01-19 20:56:00,
2014-01-19 16:01:00,37.9,8.5,29.74,North,0,0.0,0.0,29,0.00,,---,0.00,VWS V14.01,2014-01-19 21:01:00,
2014-01-19 16:06:00,37.9,6.1,29.74,North,0,0.0,0.0,26,0.00,,---,0.00,VWS V14.01,2014-01-19 21:06:00,
2014-01-19 16:11:00,37.8,6.0,29.74,North,0,0.0,0.0,26,0.00,,---,0.00,VWS V14.01,2014-01-19 21:11:00,
2014-01-19 16:16:00,37.8,6.0,29.74,North,0,0.0,0.0,26,0.00,,---,0.00,VWS V14.01,2014-01-19 21:16:00,
2014-01-19 16:21:00,37.8,6.0,29.74,North,0,0.0,0.0,26,0.00,,---,0.00,VWS V14.01,2014-01-19 21:21:00,
2014-01-19 16:26:00,38.1,6.3,29.74,North,0,0.0,0.0,26,0.00,,---,0.00,VWS V14.01,2014-01-19 21:26:00,
2014-01-19 16:31:00,37.9,6.1,29.74,North,0,0.0,0.0,26,0.00,,---,0.00,VWS V14.01,2014-01-19 21:31:00,
2014-01-19 16:36:00,37.6,5.8,29.74,North,0,0.0,0.0,26,0.00,,---,0.00,VWS V14.01,2014-01-19 21:36:00,
2014-01-19 16:41:00,37.4,5.7,29.74,North,0,0.0,0.0,26,0.00,,---,0.00,VWS V14.01,2014-01-19 21:41:00,
2014-01-19 16:46:00,37.0,7.8,29.74,North,0,0.0,0.0,29,0.00,,---,0.00,VWS V14.01,2014-01-19 21:46:00,
2014-01-19 16:51:00,37.0,7.8,29.71,North,0,0.0,0.0,29,0.00,,---,0.00,VWS V14.01,2014-01-19 21:51:00,
2014-01-19 16:56:00,37.0,7.8,29.71,North,0,0.0,0.0,29,0.00,,---,0.00,VWS V14.01,2014-01-19 21:56:00,
2014-01-19 17:01:00,37.0,8.5,29.71,North,0,0.0,0.0,30,0.00,,---,0.00,VWS V14.01,2014-01-19 22:01:00,
2014-01-19 17:06:00,36.7,8.2,29.71,North,0,0.0,0.0,30,0.00,,---,0.00,VWS V14.01,2014-01-19 22:06:00,
2014-01-19 17:11:00,36.7,8.2,29.71,North,0,0.0,0.0,30,0.00,,---,0.00,VWS V14.01,2014-01-19 22:11:00,
2014-01-19 17:16:00,36.1,7.7,29.71,North,0,0.0,0.0,30,0.00,,---,0.00,VWS V14.01,2014-01-19 22:16:00,
2014-01-19 17:21:00,35.6,7.2,29.71,North,0,0.0,0.0,30,0.00,,---,0.00,VWS V14.01,2014-01-19 22:21:00,
2014-01-19 17:26:00,35.4,7.1,29.71,North,0,0.0,0.0,30,0.00,,---,0.00,VWS V14.01,2014-01-19 22:26:00,
2014-01-19 17:31:00,35.1,6.8,29.71,North,0,0.0,0.0,30,0.00,,---,0.00,VWS V14.01,2014-01-19 22:31:00,
2014-01-19 17:36:00,34.9,6.6,29.71,North,0,0.0,0.0,30,0.00,,---,0.00,VWS V14.01,2014-01-19 22:36:00,
2014-01-19 17:41:00,34.7,7.2,29.71,North,0,0.0,0.0,31,0.00,,---,0.00,VWS V14.01,2014-01-19 22:41:00,
2014-01-19 17:46:00,34.5,6.3,29.71,North,0,0.0,0.0,30,0.00,,---,0.00,VWS V14.01,2014-01-19 22:46:00,
2014-01-19 17:51:00,34.2,6.7,29.71,North,0,0.0,0.0,31,0.00,,---,0.00,VWS V14.01,2014-01-19 22:51:00,
2014-01-19 17:56:00,34.0,6.5,29.71,North,0,0.0,0.0,31,0.00,,---,0.00,VWS V14.01,2014-01-19 22:56:00,
2014-01-19 18:01:00,33.8,6.4,29.71,North,0,0.0,0.0,31,0.00,,---,0.00,VWS V14.01,2014-01-19 23:01:00,
2014-01-19 18:06:00,33.8,6.4,29.71,North,0,0.0,0.0,31,0.00,,---,0.00,VWS V14.01,2014-01-19 23:06:00,
2014-01-19 18:11:00,33.4,6.1,29.71,North,0,0.0,0.0,31,0.00,,---,0.00,VWS V14.01,2014-01-19 23:11:00,
2014-01-19 18:16:00,33.3,5.9,29.71,North,0,0.0,0.0,31,0.00,,---,0.00,VWS V14.01,2014-01-19 23:16:00,
2014-01-19 18:21:00,33.3,5.9,29.71,North,0,0.0,0.0,31,0.00,,---,0.00,VWS V14.01,2014-01-19 23:21:00,
2014-01-19 18:26:00,33.3,5.9,29.71,North,0,0.0,0.0,31,0.00,,---,0.00,VWS V14.01,2014-01-19 23:26:00,
2014-01-19 18:31:00,33.3,5.9,29.71,North,0,0.0,0.0,31,0.00,,---,0.00,VWS V14.01,2014-01-19 23:31:00,
2014-01-19 18:36:00,33.3,5.9,29.71,North,0,0.0,0.0,31,0.00,,---,0.00,VWS V14.01,2014-01-19 23:36:00,
2014-01-19 18:41:00,33.3,5.9,29.71,North,0,0.0,0.0,31,0.00,,---,0.00,VWS V14.01,2014-01-19 23:41:00,
2014-01-19 18:46:00,33.3,5.9,29.71,North,0,0.0,0.0,31,0.00,,---,0.00,VWS V14.01,2014-01-19 23:46:00,
2014-01-19 18:51:00,33.3,5.9,29.71,North,0,0.0,0.0,31,0.00,,---,0.00,VWS V14.01,2014-01-19 23:51:00,
2014-01-19 18:55:00,33.1,5.8,29.71,North,0,0.0,0.0,31,0.00,,---,0.00,VWS V14.01,2014-01-19 23:55:00,
2014-01-19 19:00:00,33.3,5.9,29.71,North,0,0.0,0.0,31,0.00,,---,0.00,VWS V14.01,2014-01-20 00:00:00,
2014-01-19 19:05:00,33.3,5.9,29.71,North,0,0.0,0.0,31,0.00,,---,0.00,VWS V14.01,2014-01-20 00:05:00,
2014-01-19 19:10:00,33.1,5.8,29.71,North,0,0.0,0.0,31,0.00,,---,0.00,VWS V14.01,2014-01-20 00:10:00,
2014-01-19 19:15:00,33.1,5.8,29.71,North,0,0.0,0.0,31,0.00,,---,0.00,VWS V14.01,2014-01-20 00:15:00,
2014-01-19 19:20:00,33.1,5.8,29.68,North,0,0.0,0.0,31,0.00,,---,0.00,VWS V14.01,2014-01-20 00:20:00,
2014-01-19 19:25:00,33.3,5.9,29.68,North,0,0.0,0.0,31,0.00,,---,0.00,VWS V14.01,2014-01-20 00:25:00,
2014-01-19 19:30:00,33.3,5.9,29.68,North,0,0.0,0.0,31,0.00,,---,0.00,VWS V14.01,2014-01-20 00:30:00,
2014-01-19 19:35:00,33.3,5.9,29.68,North,0,0.0,0.0,31,0.00,,---,0.00,VWS V14.01,2014-01-20 00:35:00,
2014-01-19 19:40:00,33.3,5.9,29.68,North,0,0.0,0.0,31,0.00,,---,0.00,VWS V14.01,2014-01-20 00:40:00,
2014-01-19 19:45:00,33.4,6.1,29.68,North,0,0.0,0.0,31,0.00,,---,0.00,VWS V14.01,2014-01-20 00:45:00,
2014-01-19 19:50:00,33.4,6.1,29.68,North,0,0.0,0.0,31,0.00,,---,0.00,VWS V14.01,2014-01-20 00:50:00,
2014-01-19 19:55:00,33.3,5.9,29.68,North,0,0.0,0.0,31,0.00,,---,0.00,VWS V14.01,2014-01-20 00:55:00,
2014-01-19 20:00:00,33.3,5.9,29.68,North,0,0.0,0.0,31,0.00,,---,0.00,VWS V14.01,2014-01-20 01:00:00,
2014-01-19 20:05:00,33.3,5.9,29.68,North,0,0.0,0.0,31,0.00,,---,0.00,VWS V14.01,2014-01-20 01:05:00,
2014-01-19 20:10:00,33.3,5.9,29.68,North,0,0.0,0.0,31,0.00,,---,0.00,VWS V14.01,2014-01-20 01:10:00,
2014-01-19 20:15:00,33.1,5.8,29.68,North,0,0.0,0.0,31,0.00,,---,0.00,VWS V14.01,2014-01-20 01:15:00,
2014-01-19 20:20:00,33.1,5.8,29.68,North,0,0.0,0.0,31,0.00,,---,0.00,VWS V14.01,2014-01-20 01:20:00,
2014-01-19 20:25:00,32.9,5.6,29.68,North,0,0.0,0.0,31,0.00,,---,0.00,VWS V14.01,2014-01-20 01:25:00,
2014-01-19 20:30:00,32.7,5.4,29.68,North,0,0.0,0.0,31,0.00,,---,0.00,VWS V14.01,2014-01-20 01:30:00,
2014-01-19 20:35:00,33.1,5.8,29.68,North,0,0.0,0.0,31,0.00,,---,0.00,VWS V14.01,2014-01-20 01:35:00,
2014-01-19 20:40:00,33.1,5.8,29.68,North,0,0.0,0.0,31,0.00,,---,0.00,VWS V14.01,2014-01-20 01:40:00,
2014-01-19 20:45:00,33.3,5.9,29.68,North,0,0.0,0.0,31,0.00,,---,0.00,VWS V14.01,2014-01-20 01:45:00,
2014-01-19 20:50:00,33.3,5.9,29.68,North,0,0.0,0.0,31,0.00,,---,0.00,VWS V14.01,2014-01-20 01:50:00,
2014-01-19 20:55:00,33.3,5.9,29.68,North,0,0.0,0.0,31,0.00,,---,0.00,VWS V14.01,2014-01-20 01:55:00,
2014-01-19 21:00:00,33.3,5.9,29.68,North,0,0.0,0.0,31,0.00,,---,0.00,VWS V14.01,2014-01-20 02:00:00,
2014-01-19 21:05:00,33.3,5.9,29.68,North,0,0.0,0.0,31,0.00,,---,0.00,VWS V14.01,2014-01-20 02:05:00,
2014-01-19 21:10:00,33.4,6.1,29.68,North,0,0.0,0.0,31,0.00,,---,0.00,VWS V14.01,2014-01-20 02:10:00,
2014-01-19 21:15:00,33.4,6.1,29.68,North,0,0.0,0.0,31,0.00,,---,0.00,VWS V14.01,2014-01-20 02:15:00,
2014-01-19 21:20:00,33.4,6.1,29.68,North,0,0.0,0.0,31,0.00,,---,0.00,VWS V14.01,2014-01-20 02:20:00,
2014-01-19 21:25:00,33.4,6.1,29.68,North,0,0.0,0.0,31,0.00,,---,0.00,VWS V14.01,2014-01-20 02:25:00,
2014-01-19 21:30:00,33.3,5.9,29.68,North,0,0.0,0.0,31,0.00,,---,0.00,VWS V14.01,2014-01-20 02:30:00,
2014-01-19 21:35:00,33.4,6.1,29.65,North,0,0.0,0.0,31,0.00,,---,0.00,VWS V14.01,2014-01-20 02:35:00,
2014-01-19 21:40:00,33.4,6.1,29.65,North,0,0.0,0.0,31,0.00,,---,0.00,VWS V14.01,2014-01-20 02:40:00,
2014-01-19 21:45:00,33.4,6.1,29.65,North,0,0.0,0.0,31,0.00,,---,0.00,VWS V14.01,2014-01-20 02:45:00,
2014-01-19 21:50:00,33.6,6.2,29.65,North,0,0.0,0.0,31,0.00,,---,0.00,VWS V14.01,2014-01-20 02:50:00,
2014-01-19 21:55:00,33.6,6.2,29.65,North,0,0.0,0.0,31,0.00,,---,0.00,VWS V14.01,2014-01-20 02:55:00,
2014-01-19 22:00:00,33.8,6.4,29.65,North,0,0.0,0.0,31,0.00,,---,0.00,VWS V14.01,2014-01-20 03:00:00,
2014-01-19 22:05:00,34.0,5.8,29.65,North,0,0.0,0.0,30,0.00,,---,0.00,VWS V14.01,2014-01-20 03:05:00,
2014-01-19 22:10:00,34.3,6.1,29.65,North,0,0.0,0.0,30,0.00,,---,0.00,VWS V14.01,2014-01-20 03:10:00,
2014-01-19 22:15:00,34.5,6.3,29.65,North,0,0.0,0.0,30,0.00,,---,0.00,VWS V14.01,2014-01-20 03:15:00,
2014-01-19 22:20:00,34.9,6.6,29.65,North,0,0.0,0.0,30,0.00,,---,0.00,VWS V14.01,2014-01-20 03:20:00,
2014-01-19 22:25:00,35.1,6.8,29.65,North,0,0.0,0.0,30,0.00,,---,0.00,VWS V14.01,2014-01-20 03:25:00,
2014-01-19 22:30:00,35.4,7.1,29.65,North,0,0.0,0.0,30,0.00,,---,0.00,VWS V14.01,2014-01-20 03:30:00,
2014-01-19 22:35:00,35.6,7.2,29.65,North,0,0.0,0.0,30,0.00,,---,0.00,VWS V14.01,2014-01-20 03:35:00,
2014-01-19 22:40:00,35.8,7.4,29.65,North,0,0.0,0.0,30,0.00,,---,0.00,VWS V14.01,2014-01-20 03:40:00,
2014-01-19 22:45:00,35.8,7.4,29.65,North,0,0.0,0.0,30,0.00,,---,0.00,VWS V14.01,2014-01-20 03:45:00,
2014-01-19 22:50:00,36.0,7.6,29.65,North,0,0.0,0.0,30,0.00,,---,0.00,VWS V14.01,2014-01-20 03:50:00,
2014-01-19 22:55:00,36.3,7.9,29.65,North,0,0.0,0.0,30,0.00,,---,0.00,VWS V14.01,2014-01-20 03:55:00,
2014-01-19 23:00:00,36.5,8.0,29.65,North,0,0.0,0.0,30,0.00,,---,0.00,VWS V14.01,2014-01-20 04:00:00,
2014-01-19 23:05:00,36.5,8.0,29.65,North,0,0.0,0.0,30,0.00,,---,0.00,VWS V14.01,2014-01-20 04:05:00,
2014-01-19 23:10:00,36.7,8.2,29.65,North,0,0.0,0.0,30,0.00,,---,0.00,VWS V14.01,2014-01-20 04:10:00,
2014-01-19 23:15:00,36.9,8.3,29.65,North,0,0.0,0.0,30,0.00,,---,0.00,VWS V14.01,2014-01-20 04:15:00,
2014-01-19 23:20:00,37.0,8.5,29.65,North,0,0.0,0.0,30,0.00,,---,0.00,VWS V14.01,2014-01-20 04:20:00,
2014-01-19 23:25:00,37.0,8.5,29.65,North,0,0.0,0.0,30,0.00,,---,0.00,VWS V14.01,2014-01-20 04:25:00,
2014-01-19 23:30:00,37.4,8.1,29.65,North,0,0.0,0.0,29,0.00,,---,0.00,VWS V14.01,2014-01-20 04:30:00,
2014-01-19 23:35:00,37.4,8.1,29.65,North,0,0.0,0.0,29,0.00,,---,0.00,VWS V14.01,2014-01-20 04:35:00,
2014-01-19 23:40:00,37.6,8.2,29.65,North,0,0.0,0.0,29,0.00,,---,0.00,VWS V14.01,2014-01-20 04:40:00,
2014-01-19 23:45:00,37.4,8.1,29.65,North,0,0.0,0.0,29,0.00,,---,0.00,VWS V14.01,2014-01-20 04:45:00,
2014-01-19 23:50:00,37.4,8.1,29.62,North,0,0.0,0.0,29,0.00,,---,0.00,VWS V14.01,2014-01-20 04:50:00,
2014-01-19 23:55:00,37.8,8.4,29.62,North,0,0.0,0.0,29,0.00,,---,0.00,VWS V14.01,2014-01-20 04:55:00,